Terug naar catalogus

RCM 2

ActiefWetenschapSSO
NORAD 44324·PAYLOAD·🇨🇦 Canada

Gelanceerd Jun 12, 2019 vanaf Vandenberg Space Force Base

Loading…

Volgende Passages (komende 24 uur)

TLE

VersSource: Space-Track

Epoch: Sep 14, 2026, 14:37 UTC

1 44324U 19033C   26257.60963831  .00000393  00000-0  43614-4 0  9998
2 44324  97.7600 263.8372 0001526  90.0792 270.0602 14.92589730395428

Volg RCM 2 in realtime met AllMySat

Download on the App Store